IZ5TJI-3 Weather Reports


time (UTC)temp
C
wind
direction
speed
KPH
gust
KPH
rain 1hr
cm
rain 24hr
cm
rain mn
cm
humidity
%
barometer
mb
20260507202937 12 112 6.4 6.4 0.00 0.20 0.00 75 1012.0
20260507201437 13 337 0.0 0.0 0.00 0.20 0.00 75 1011.9
20260507195937 13 337 1.6 1.6 0.00 0.20 0.00 74 1012.1
20260507194437 13 292 0.0 0.0 0.00 0.20 0.00 69 1011.9
20260507192937 15 292 0.0 0.0 0.00 0.20 0.00 65 1012.0
20260507191437 15 292 0.0 0.0 0.00 0.20 0.00 63 1012.1
20260507185937 16 292 0.0 0.0 0.00 0.20 0.00 62 1011.8
20260507184437 16 292 3.2 3.2 0.00 0.20 0.00 60 1011.7
20260507182937 17 292 3.2 3.2 0.00 0.20 0.00 59 1011.4
20260507181437 17 292 6.4 6.4 0.00 0.20 0.00 59 1011.4
20260507175937 18 292 3.2 4.8 0.00 0.20 0.00 57 1011.4
20260507174437 18 292 6.4 9.7 0.00 0.20 0.00 54 1011.4
20260507172937 19 292 0.0 8.0 0.00 0.20 0.00 50 1011.2
20260507171437 20 292 9.7 9.7 0.00 0.20 0.00 47 1011.2
20260507165937 20 202 11.3 11.3 0.00 0.20 0.00 46 1011.2
20260507164437 20 247 3.2 11.3 0.00 0.20 0.00 45 1011.2
20260507162937 20 180 3.2 8.0 0.00 0.20 0.00 44 1011.3
20260507161437 21 225 8.0 8.0 0.00 0.20 0.00 45 1011.3
20260507155937 21 225 4.8 9.7 0.00 0.20 0.00 45 1011.1
20260507154437 21 270 14.5 14.5 0.00 0.20 0.00 44 1011.1
20260507152937 21 202 6.4 6.4 0.00 0.20 0.00 44 1011.2
20260507151437 21 202 6.4 6.4 0.00 0.20 0.00 43 1011.4
20260507145937 21 202 6.4 9.7 0.00 0.20 0.00 44 1011.4
20260507144437 21 270 11.3 12.9 0.00 0.20 0.00 43 1011.6
20260507142937 21 292 4.8 4.8 0.00 0.20 0.00 44 1011.6
20260507141437 21 225 3.2 6.4 0.00 0.20 0.00 44 1011.8
20260507135937 21 225 6.4 9.7 0.00 0.20 0.00 45 1011.9
20260507134437 21 247 16.1 16.1 0.00 0.20 0.00 46 1012.0
20260507132937 21 202 9.7 9.7 0.00 0.20 0.00 47 1012.0
20260507131437 21 270 8.0 14.5 0.00 0.20 0.00 47 1012.0
20260507125937 21 270 0.0 8.0 0.00 0.20 0.00 49 1012.0
20260507124437 21 270 4.8 4.8 0.00 0.20 0.00 49 1011.9
20260507122938 21 292 6.4 6.4 0.00 0.20 0.00 48 1012.2
20260507121438 20 270 3.2 3.2 0.00 0.20 0.00 50 1012.2
20260507115938 20 292 8.0 8.0 0.00 0.20 0.00 50 1012.4
20260507114438 20 270 0.0 11.3 0.00 0.20 0.00 51 1012.6
20260507112938 20 180 0.0 6.4 0.00 0.20 0.00 53 1012.7
20260507111438 20 180 8.0 8.0 0.00 0.20 0.00 55 1012.8
20260507105938 20 180 9.7 9.7 0.00 0.20 0.00 56 1012.9
20260507104438 20 202 12.9 12.9 0.00 0.20 0.00 56 1013.0
20260507102938 20 247 1.6 1.6 0.00 0.20 0.00 59 1013.2
20260507101438 20 270 0.0 4.8 0.00 0.20 0.00 60 1013.3
20260507095938 19 270 0.0 9.7 0.00 0.20 0.00 62 1013.4
20260507094438 19 202 0.0 0.0 0.00 0.20 0.00 64 1013.5
20260507092938 18 292 0.0 8.0 0.00 0.20 0.00 65 1013.5
20260507091438 18 337 0.0 0.0 0.00 0.20 0.00 68 1013.2
20260507085938 17 270 4.8 6.4 0.00 0.20 0.00 70 1013.3
20260507084438 17 270 6.4 6.4 0.00 0.20 0.00 71 1013.5
20260507082938 17 270 0.0 0.0 0.00 0.20 0.00 75 1013.3
20260507081746 16 315 0.0 0.0 0.00 0.20 0.00 76 1013.5
20260507081706 16 315 0.0 0.0 0.00 0.20 0.00 76 1013.5
20260507081438 16 315 0.0 0.0 0.00 0.20 0.00 76 1013.5
20260507075938 16 22 1.6 3.2 0.00 0.20 0.00 77 1013.4
20260507074438 15 0 0.0 0.0 0.00 0.20 0.00 80 1013.3
20260507072938 15 45 0.0 6.4 0.00 0.20 0.00 83 1013.2
20260507071439 14 112 0.0 0.0 0.00 0.20 0.00 83 1013.2
20260507070012 13 112 0.0 8.0 0.00 0.20 0.00 84 1013.1
20260507065938 13 112 0.0 8.0 0.00 0.20 0.00 84 1013.1
20260507064438 12 90 0.0 0.0 0.00 0.20 0.00 89 1013.0
20260507062938 12 135 1.6 1.6 0.00 0.20 0.00 92 1013.0
20260507061438 11 112 0.0 0.0 0.00 0.20 0.00 92 1013.1
20260507055938 11 112 3.2 3.2 0.00 0.20 0.00 93 1013.0
20260507054438 10 112 8.0 8.0 0.00 0.20 0.00 93 1012.8
20260507052938 10 90 4.8 4.8 0.00 0.20 0.00 93 1012.6
20260507051438 10 67 0.0 0.0 0.00 0.20 0.00 93 1012.6
20260507045938 10 67 0.0 0.0 0.00 0.25 0.00 93 1012.5
20260507044438 9 90 0.0 0.0 0.00 0.25 0.00 92 1012.2
20260507042938 8 90 0.0 0.0 0.00 0.25 0.00 92 1012.2
20260507041438 8 90 0.0 0.0 0.00 0.25 0.00 92 1011.9
20260507035938 9 90 0.0 0.0 0.00 0.25 0.00 92 1011.9
20260507034438 9 90 0.0 0.0 0.00 0.25 0.00 92 1011.9
20260507032938 9 90 0.0 0.0 0.00 0.25 0.00 92 1011.8
20260507031438 10 90 0.0 0.0 0.00 0.25 0.00 92 1011.6
20260507025938 10 67 0.0 0.0 0.00 0.36 0.00 92 1011.8
20260507024438 10 67 0.0 0.0 0.00 0.36 0.00 92 1011.8
20260507022938 10 67 0.0 0.0 0.00 0.36 0.00 91 1011.7
20260507021438 10 67 0.0 0.0 0.00 0.36 0.00 91 1011.7
20260507015938 10 67 0.0 0.0 0.00 1.50 0.00 91 1011.7
20260507014439 10 67 0.0 0.0 0.00 1.50 0.00 91 1011.6
20260507012939 10 67 0.0 0.0 0.00 1.50 0.00 91 1011.6
20260507011439 11 67 0.0 0.0 0.00 1.50 0.00 91 1011.6
20260507005939 11 67 0.0 0.0 0.00 3.20 0.00 91 1011.8
20260507004439 11 67 0.0 0.0 0.00 3.20 0.00 91 1011.7
20260507002939 11 67 0.0 0.0 0.00 3.20 0.00 91 1011.6
20260507001439 11 67 1.6 1.6 0.00 3.20 0.00 91 1011.7
20260506235939 11 90 1.6 1.6 0.00 3.20 0.00 91 1011.6
20260506234439 11 90 1.6 1.6 0.05 3.20 0.00 91 1011.7
20260506232939 11 112 0.0 0.0 0.05 3.20 0.00 91 1011.8
20260506231439 11 112 0.0 3.2 0.05 3.20 0.00 91 1012.1
20260506225939 11 112 4.8 4.8 0.10 3.20 0.00 90 1011.8
20260506224439 11 112 1.6 1.6 0.10 3.15 0.00 90 1011.9
20260506222939 11 112 0.0 0.0 0.15 3.15 0.00 90 1012.1
20260506221439 11 135 0.0 0.0 0.15 3.15 0.00 89 1011.8
20260506215939 11 112 1.6 1.6 0.10 3.61 0.00 88 1011.6
20260506214439 11 157 0.0 0.0 0.05 3.56 0.00 88 1011.8
20260506213052 12 157 1.6 4.8 0.00 3.51 0.00 87 1011.9
20260506212939 12 157 1.6 4.8 0.00 3.51 0.00 87 1011.9
20260506211439 12 157 1.6 1.6 0.00 3.51 0.00 86 1011.7
20260506205939 12 135 0.0 0.0 0.00 3.61 0.00 84 1011.5
20260506204439 13 180 0.0 9.7 0.00 3.61 0.00 84 1011.4